1505440800.01,13377,14.5,73118.5,-3.03,-28.15,-33.21,0,*5C
1505440801.23,13378,14.5,73134.0,-3.03,-28.15,-33.37,0,*54
1505440802.46,13379,14.5,73120.8,-3.07,-28.43,-33.55,0,*56
1505440803.72,13380,14.5,73118.3,-3.05,-28.53,-33.43,0,*54
1505440804.95,13381,14.5,73092.8,-3.07,-28.69,-33.61,0,*5E
1505440806.21,13382,14.5,73102.0,-3.05,-28.75,-33.67,0,*54
1505440807.45,13383,14.5,73122.8,-3.07,-28.91,-33.67,0,*5D
1505440808.68,13384,14.5,73126.8,-3.07,-28.79,-33.55,0,*5D
1505440809.92,13385,14.5,73120.0,-3.07,-28.75,-33.37,0,*54
1505440811.15,13386,14.5,73104.8,-3.07,-28.63,-33.21,0,*57
1505440812.39,13387,14.5,73116.5,-3.07,-28.37,-32.97,0,*5B
1505440813.64,13388,14.5,73100.8,-3.07,-28.43,-32.97,0,*57
1505440814.88,13389,14.44,73102.3,-3.07,-28.37,-32.79,0,*55
1505440816.14,13390,14.5,73082.3,-3.07,-28.43,-32.79,0,*5E
1505440817.4,13391,14.5,73116.8,-3.07,-28.47,-32.75,0,*57
1505440818.67,13392,14.5,73108.3,-3.07,-28.63,-32.79,0,*5E
1505440819.93,13393,14.5,73120.0,-3.07,-28.63,-32.79,0,*5F
1505440821.2,13394,14.5,73106.5,-3.07,-28.91,-32.85,0,*56
1505440822.46,13395,14.5,73106.0,-3.05,-28.91,-32.91,0,*50
1505440823.67,13396,14.5,73104.0,-3.07,-28.97,-33.03,0,*5D
1505440824.93,13397,14.5,73082.0,-3.05,-29.01,-32.91,0,*5A
1505440826.17,13398,14.5,73084.0,-3.07,-28.97,-32.79,0,*5F
1505440827.41,13399,14.5,73090.0,-3.07,-29.39,-33.21,0,*57
1505440828.62,13400,14.5,73090.0,-3.07,-29.45,-33.15,0,*5C
1505440829.86,13401,14.5,73100.3,-3.07,-29.23,-33.09,0,*50
1505440831.09,13402,14.5,73094.3,-3.07,-29.29,-33.03,0,*53
1505440832.33,13403,14.5,73096.8,-3.07,-29.29,-33.03,0,*52
1505440833.59,13404,14.5,73104.8,-3.07,-29.39,-32.97,0,*58
1505440834.85,13405,14.5,73110.8,-3.07,-29.51,-32.97,0,*57
1505440836.07,13406,14.5,73110.5,-3.07,-29.67,-33.03,0,*5D
1505440837.28,13407,14.5,73104.0,-3.07,-29.67,-33.03,0,*5C
1505440838.49,13408,14.5,73112.3,-3.07,-29.79,-33.21,0,*5C
1505440839.73,13409,14.5,73116.3,-3.09,-29.83,-33.15,0,*51
1505440840.99,13410,14.5,73112.3,-3.05,-30.11,-33.43,0,*55
1505440842.22,13411,14.5,73122.5,-3.07,-30.27,-33.49,0,*59
1505440843.47,13412,14.5,73118.5,-3.09,-30.27,-33.37,0,*5D
1505440844.72,13413,14.5,73132.3,-3.09,-30.33,-33.49,0,*50
1505440845.98,13414,14.5,73132.5,-3.09,-30.51,-33.67,0,*5F
1505440847.19,13415,14.5,73124.8,-3.11,-30.67,-33.83,0,*58
1505440848.42,13416,14.5,73118.0,-3.11,-30.89,-33.95,0,*5C
1505440849.65,13417,14.5,73116.3,-3.11,-30.95,-33.95,0,*50
1505440850.9,13418,14.5,73124.5,-3.11,-30.89,-33.73,0,*5A
1505440852.16,13419,14.5,73120.3,-3.11,-30.95,-33.77,0,*52
1505440853.42,13420,14.5,73134.0,-3.13,-30.73,-33.55,0,*52
1505440854.67,13421,14.5,73142.8,-3.13,-30.77,-33.55,0,*57
1505440855.92,13422,14.5,73146.8,-3.13,-30.77,-33.55,0,*54
1505440857.21,13423,14.5,73140.3,-3.13,-30.77,-33.43,0,*52
1505440858.5,13424,14.5,73140.5,-3.13,-30.77,-33.43,0,*55
1505440859.78,13425,14.5,73146.0,-3.13,-30.77,-33.43,0,*54
1505440861.07,13426,14.5,73140.0,-3.17,-30.77,-33.43,0,*53
1505440862.36,13427,14.5,73136.8,-3.13,-30.89,-33.43,0,*57
1505440863.62,13428,14.5,73148.8,-3.17,-30.83,-33.31,0,*53
1505440864.91,13429,14.5,73156.8,-3.17,-30.77,-33.27,0,*5E
1505440866.18,13430,14.5,73132.3,-3.17,-30.55,-32.97,0,*5C
1505440867.46,13431,14.5,73118.3,-3.17,-30.39,-32.75,0,*5B
1505440868.74,13432,14.5,73104.0,-3.17,-30.61,-32.97,0,*59
1505440870.01,13433,14.5,73120.5,-3.17,-30.61,-32.97,0,*58
1505440871.27,13434,14.5,73090.0,-3.17,-30.61,-32.91,0,*59
1505440872.53,13435,14.5,73072.0,-3.13,-30.73,-32.91,0,*5F
1505440873.81,13436,14.5,73086.5,-3.17,-30.77,-32.97,0,*5A
1505440875.05,13437,14.5,73088.5,-3.19,-30.67,-32.85,0,*57
1505440876.33,13438,14.5,73096.3,-3.13,-30.73,-32.85,0,*57
1505440877.58,13439,14.5,73082.5,-3.13,-30.55,-32.69,0,*50
1505440878.87,13440,14.5,73086.0,-3.13,-30.61,-32.79,0,*58
1505440880.13,13441,14.5,73094.5,-3.17,-30.95,-32.91,0,*50
1505440881.41,13442,14.5,73098.8,-3.13,-31.23,-33.09,0,*5B
1505440882.67,13443,14.5,73118.5,-3.17,-31.01,-33.09,0,*5E
1505440883.95,13444,14.5,73122.5,-3.17,-31.11,-33.09,0,*58
1505440885.22,13445,14.5,73118.8,-3.17,-31.45,-33.27,0,*54
1505440886.48,13446,14.5,73090.3,-3.17,-31.45,-33.31,0,*50
1505440887.74,13447,14.5,73072.3,-3.17,-31.17,-33.09,0,*5D
1505440889.0,13448,14.5,73088.0,-3.13,-31.23,-33.03,0,*5B
1505440890.27,13449,14.5,73090.0,-3.17,-31.11,-32.91,0,*55
1505440891.53,13450,14.5,73112.0,-3.17,-31.17,-32.85,0,*5E
1505440892.76,13451,14.5,73120.0,-3.17,-31.17,-32.91,0,*5A
1505440894.02,13452,14.5,73124.0,-3.17,-31.01,-32.85,0,*5B
1505440895.31,13453,14.5,73138.5,-3.17,-31.11,-32.85,0,*5B
1505440896.54,13454,14.5,73144.3,-3.17,-31.17,-32.91,0,*5F
1505440897.77,13455,14.5,73134.0,-3.13,-31.29,-32.91,0,*57
1505440899.03,13456,14.5,73130.5,-3.17,-30.95,-32.57,0,*5C
1505440900.24,13457,14.5,73144.8,-3.19,-30.83,-32.69,0,*59
1505440901.51,13458,14.5,73136.3,-3.17,-30.67,-32.19,0,*55
1505440902.78,13459,14.5,73144.0,-3.17,-30.55,-32.07,0,*5A
1505440904.07,13460,14.5,73150.8,-3.13,-30.05,-31.61,0,*52
1505440905.32,13461,14.5,73144.5,-3.13,-30.23,-31.85,0,*5D
1505440906.54,13462,14.5,73146.5,-3.13,-30.33,-31.79,0,*5C
1505440907.8,13463,14.5,73134.8,-3.11,-30.73,-32.29,0,*5D
1505440909.06,13464,14.5,73122.5,-3.11,-31.11,-32.63,0,*51
1505440910.32,13465,14.5,73130.5,-3.09,-31.17,-32.63,0,*5F
1505440911.58,13466,14.5,73154.8,-3.11,-31.39,-32.79,0,*52
1505440912.87,13467,14.5,73154.8,-3.09,-31.23,-32.63,0,*5A
1505440914.12,13468,14.5,73156.8,-3.09,-31.05,-32.45,0,*55
1505440915.35,13469,14.5,73152.3,-3.09,-31.05,-32.57,0,*57
1505440916.61,13470,14.5,73150.8,-3.11,-31.11,-32.45,0,*50
1505440917.86,13471,14.5,73144.3,-3.11,-31.23,-32.51,0,*55
1505440919.06,13472,14.5,73138.0,-3.11,-31.05,-32.35,0,*50
1505440920.32,13473,14.5,73132.8,-3.11,-31.23,-32.45,0,*52
1505440921.58,13474,14.5,73132.3,-3.09,-31.23,-32.57,0,*5F
1505440922.82,13475,14.5,73152.3,-3.11,-31.39,-32.69,0,*51
1505440924.06,13476,14.5,73156.5,-3.11,-31.57,-32.69,0,*5A
1505440925.3,13477,14.5,73156.5,-3.11,-31.45,-32.79,0,*59
1505440926.56,13478,14.5,73154.3,-3.11,-31.57,-32.85,0,*56
1505440927.8,13479,14.5,73152.5,-3.11,-31.85,-33.03,0,*57
1505440929.01,13480,14.5,73142.0,-3.11,-31.79,-32.91,0,*58
1505440930.27,13481,14.5,73138.5,-3.11,-31.61,-32.79,0,*56
1505440931.54,13482,14.5,73136.5,-3.11,-31.73,-32.85,0,*55
1505440932.78,13483,14.5,73138.0,-3.11,-31.57,-32.69,0,*50
1505440934.04,13484,14.5,73156.3,-3.13,-31.57,-32.69,0,*55
1505440935.3,13485,14.5,73152.0,-3.17,-31.61,-32.57,0,*58
1505440936.56,13486,14.5,73162.8,-3.13,-31.57,-32.69,0,*57
1505440937.82,13487,14.5,73160.3,-3.17,-31.51,-32.69,0,*54
1505440939.06,13488,14.5,73160.5,-3.13,-31.45,-32.51,0,*51
1505440940.32,13489,14.5,73142.8,-3.13,-31.23,-32.35,0,*52
1505440941.6,13490,14.5,73144.5,-3.13,-31.39,-32.45,0,*56
1505440942.84,13491,14.5,73144.0,-3.17,-31.45,-32.39,0,*53
1505440944.12,13492,14.5,73146.8,-3.13,-31.39,-32.45,0,*54
1505440945.39,13493,14.5,73146.3,-3.13,-31.45,-32.45,0,*5E
1505440946.65,13494,14.5,73142.8,-3.17,-31.51,-32.51,0,*5D
1505440947.91,13495,14.5,73142.3,-3.13,-31.45,-32.45,0,*58
1505440949.19,13496,14.5,73150.0,-3.13,-31.39,-32.19,0,*59
1505440950.42,13497,14.5,73144.0,-3.17,-31.33,-32.23,0,*5F
1505440951.68,13498,14.5,73132.5,-3.13,-31.29,-32.19,0,*56
1505440952.94,13499,14.5,73134.0,-3.17,-30.67,-31.61,0,*54
1505440954.23,13500,14.5,73130.5,-3.17,-29.89,-30.95,0,*57
1505440955.49,13501,14.5,73124.8,-3.13,-29.13,-30.23,0,*5C
1505440956.76,13502,14.5,73088.8,-3.13,-29.57,-30.77,0,*5E
1505440958.01,13503,14.5,73086.5,-3.11,-30.61,-31.73,0,*55
1505440959.27,13504,14.5,73084.3,-3.11,-30.77,-31.95,0,*5D
1505440960.53,13505,14.5,73118.3,-3.09,-31.33,-32.45,0,*5A
1505440961.76,13506,14.5,73106.8,-3.11,-31.39,-32.35,0,*5D
1505440963.02,13507,14.5,73102.5,-3.11,-31.11,-32.29,0,*5B
1505440964.26,13508,14.5,73102.8,-3.11,-30.95,-32.13,0,*50
1505440965.51,13509,14.5,73098.5,-3.13,-30.95,-32.13,0,*53
1505440966.77,13510,14.5,73100.3,-3.13,-30.89,-32.01,0,*55
1505440968.03,13511,14.5,73094.0,-3.17,-30.83,-32.07,0,*5C
1505440969.32,13512,14.5,73094.8,-3.17,-30.95,-32.07,0,*58
1505440970.57,13513,14.5,73120.8,-3.13,-30.61,-31.79,0,*5C
1505440971.81,13514,14.5,73096.5,-3.11,-29.89,-31.05,0,*5C
1505440973.08,13515,14.5,73088.0,-3.13,-29.57,-30.89,0,*59
1505440974.31,13516,14.5,73098.8,-3.13,-29.83,-31.05,0,*56
1505440975.6,13517,14.5,73106.5,-3.13,-30.01,-31.11,0,*50
1505440976.89,13518,14.5,73102.3,-3.13,-29.89,-31.11,0,*57
1505440978.18,13519,14.5,73120.0,-3.13,-29.89,-31.11,0,*56
1505440979.41,13520,14.5,73110.5,-3.13,-29.83,-31.05,0,*53
1505440980.65,13521,14.5,73142.5,-3.13,-29.67,-31.05,0,*58
1505440981.92,13522,14.5,73140.0,-3.09,-29.51,-31.01,0,*51
1505440983.16,13523,14.5,73128.0,-3.11,-29.83,-31.23,0,*56
1505440984.37,13524,14.5,73138.8,-3.11,-29.83,-31.29,0,*5B
1505440985.64,13525,14.5,73130.8,-3.13,-29.57,-31.23,0,*5B
1505440986.91,13526,14.5,73132.8,-3.13,-29.57,-31.11,0,*59
1505440988.2,13527,14.5,73136.3,-3.13,-29.51,-31.11,0,*5E
1505440989.47,13528,14.5,73122.8,-3.13,-29.35,-31.05,0,*56
1505440990.73,13529,14.5,73130.0,-3.17,-29.39,-31.01,0,*5B
1505440992.02,13530,14.5,73132.5,-3.13,-29.17,-30.89,0,*5A
1505440993.29,13531,14.5,73120.0,-3.17,-29.07,-30.77,0,*5F
1505440994.59,13532,14.5,73100.8,-3.17,-29.01,-30.77,0,*5A
1505440995.86,13533,14.5,73100.5,-3.13,-28.47,-30.39,0,*56
1505440997.12,13534,14.5,73122.0,-3.13,-28.31,-30.17,0,*5C
1505440998.41,13535,14.5,73128.3,-3.17,-28.05,-30.05,0,*5D
1505440999.67,13536,14.5,73114.0,-3.17,-27.51,-29.51,0,*59
1505441000.95,13537,14.5,73114.0,-3.13,-27.23,-29.01,0,*5C
1505441002.15,13538,14.5,73124.3,-3.11,-27.07,-28.97,0,*59
1505441003.41,13539,14.5,73112.0,-3.11,-26.93,-29.01,0,*5A
1505441004.69,13540,14.5,73114.3,-3.09,-26.71,-28.79,0,*5F
1505441005.92,13541,14.5,73118.0,-3.11,-26.77,-28.97,0,*51
1505441007.19,13542,14.5,73124.0,-3.09,-26.61,-28.91,0,*5A
1505441008.41,13543,14.5,73130.5,-3.07,-26.71,-29.07,0,*5A
1505441009.64,13544,14.5,73138.8,-3.07,-26.87,-29.29,0,*58
1505441010.86,13545,14.5,73146.0,-3.05,-27.13,-29.61,0,*5B
1505441012.09,13546,14.5,73154.0,-3.07,-27.19,-29.95,0,*5B
1505441013.3,13547,14.5,73158.0,-3.07,-27.29,-29.83,0,*5E
1505441014.53,13548,14.5,73156.5,-3.07,-27.19,-29.83,0,*52
1505441015.77,13549,14.5,73152.8,-3.07,-26.77,-29.67,0,*50
1505441016.98,13550,14.56,73160.8,-3.07,-26.87,-29.67,0,*57
1505441018.21,13551,14.5,73156.8,-3.07,-26.71,-29.61,0,*59
1505441019.42,13552,14.5,73148.5,-3.07,-26.45,-29.45,0,*5B
1505441020.68,13553,14.5,73154.3,-3.07,-26.29,-29.39,0,*5B
1505441021.94,13554,14.5,73162.8,-3.07,-26.17,-29.39,0,*51
1505441023.16,13555,14.5,73166.8,-3.07,-26.23,-29.39,0,*57
1505441024.42,13556,14.5,73164.8,-3.07,-26.17,-29.39,0,*53
1505441025.65,13557,14.5,73166.5,-3.07,-26.07,-29.29,0,*52
1505441026.88,13558,14.5,73164.0,-3.07,-25.91,-29.39,0,*50
1505441028.1,13559,14.5,73162.0,-3.07,-25.87,-29.29,0,*57
1505441029.33,13560,14.5,73156.8,-3.07,-25.87,-29.39,0,*5C
1505441030.62,13561,14.5,73156.5,-3.09,-25.71,-29.39,0,*5A
1505441031.88,13562,14.5,73162.5,-3.07,-25.55,-29.29,0,*50
1505441033.08,13563,14.5,73160.8,-3.07,-25.39,-29.23,0,*51
1505441034.33,13564,14.5,73164.0,-3.07,-25.29,-29.29,0,*5D
1505441035.55,13565,14.5,73160.3,-3.07,-25.23,-29.29,0,*56
1505441036.78,13566,14.5,73156.8,-3.07,-25.13,-29.39,0,*57
1505441038.0,13567,14.5,73158.0,-3.09,-24.93,-29.23,0,*5A
1505441039.22,13568,14.5,73154.3,-3.07,-24.93,-29.29,0,*51
1505441040.47,13569,14.5,73148.8,-3.09,-24.77,-29.29,0,*54
1505441041.73,13570,14.5,73142.0,-3.11,-24.67,-29.35,0,*59
1505441042.98,13571,14.5,73148.5,-3.11,-24.51,-29.35,0,*5D
1505441044.22,13572,14.5,73148.3,-3.11,-24.51,-29.35,0,*5E
1505441045.48,13573,14.5,73144.5,-3.09,-24.31,-29.29,0,*5D
1505441046.7,13574,14.5,73128.5,-3.11,-24.31,-29.45,0,*59
1505441047.95,13575,14.5,73130.0,-3.11,-24.11,-29.17,0,*5D
1505441049.2,13576,14.5,73136.3,-3.11,-23.99,-29.29,0,*54
1505441050.44,13577,14.5,73130.5,-3.11,-23.79,-29.17,0,*56
1505441051.71,13578,14.5,73130.3,-3.13,-23.65,-29.13,0,*52
1505441052.98,13579,14.5,73132.3,-3.13,-23.49,-29.29,0,*54
1505441054.26,13580,14.5,73136.3,-3.13,-23.49,-29.17,0,*5F
1505441055.52,13581,14.5,73136.3,-3.17,-23.43,-29.17,0,*50
1505441056.8,13582,14.56,73150.0,-3.17,-23.23,-29.17,0,*55
1505441058.05,13583,14.5,73150.3,-3.13,-23.13,-29.17,0,*53
1505441059.31,13584,14.5,73144.8,-3.13,-22.97,-29.01,0,*5E
1505441060.56,13585,14.5,73134.3,-3.17,-22.77,-29.07,0,*53
1505441061.84,13586,14.5,73148.0,-3.13,-22.73,-29.01,0,*56
1505441063.06,13587,14.5,73166.3,-3.17,-22.63,-29.07,0,*54
1505441064.31,13588,14.5,73148.0,-3.17,-22.63,-29.17,0,*5A
1505441065.54,13589,14.5,73142.3,-3.17,-22.63,-29.07,0,*5A
1505441066.82,13590,14.5,73134.8,-3.17,-22.47,-29.17,0,*55
1505441068.07,13591,14.5,73148.8,-3.13,-22.21,-28.97,0,*59
1505441069.33,13592,14.5,73138.5,-3.17,-22.11,-29.01,0,*53
1505441070.58,13593,14.5,73138.0,-3.17,-22.07,-29.01,0,*55
1505441071.86,13594,14.5,73124.5,-3.17,-21.97,-29.01,0,*58
1505441073.14,13595,14.5,73142.0,-3.17,-21.97,-28.91,0,*51
1505441074.4,13596,14.5,73138.3,-3.17,-21.77,-29.01,0,*54
1505441075.65,13597,14.5,73146.5,-3.17,-21.77,-29.01,0,*55
1505441076.91,13598,14.5,73138.0,-3.17,-21.77,-29.17,0,*5D
1505441078.14,13599,14.5,73132.0,-3.19,-21.77,-29.17,0,*52
1505441079.37,13600,14.5,73124.0,-3.19,-21.63,-29.17,0,*54
1505441080.6,13601,14.5,73114.5,-3.19,-21.63,-29.17,0,*55
1505441081.8,13602,14.56,73128.5,-3.19,-21.63,-29.23,0,*51
1505441083.03,13603,14.5,73126.0,-3.19,-21.53,-29.23,0,*53
1505441084.26,13604,14.5,73130.8,-3.17,-21.47,-29.23,0,*5F
1505441085.51,13605,14.5,73146.5,-3.19,-21.33,-29.17,0,*54
1505441086.74,13606,14.5,73144.5,-3.19,-21.23,-29.23,0,*51
1505441087.94,13607,14.5,73136.3,-3.19,-21.39,-29.23,0,*5B
1505441089.17,13608,14.5,73132.5,-3.19,-21.39,-29.39,0,*5F
1505441090.4,13609,14.5,73134.3,-3.21,-21.43,-29.61,0,*55
1505441091.66,13610,14.5,73144.0,-3.19,-21.33,-29.51,0,*52
1505441092.89,13611,14.56,73150.0,-3.19,-21.39,-29.73,0,*59
1505441094.15,13612,14.5,73148.0,-3.13,-21.33,-29.67,0,*5F
1505441095.41,13613,14.5,73148.8,-3.21,-21.53,-29.95,0,*54
1505441096.68,13614,14.5,73150.3,-3.21,-21.53,-29.95,0,*53
1505441097.88,13615,14.56,73156.0,-3.19,-21.39,-29.95,0,*55
1505441099.14,13616,14.5,73148.0,-3.21,-21.43,-30.01,0,*55
1505441100.4,13617,14.5,73146.8,-3.21,-21.43,-30.17,0,*53
1505441101.67,13618,14.5,73142.5,-3.21,-21.39,-30.17,0,*51
1505441102.9,13619,14.5,73138.8,-3.21,-21.39,-30.27,0,*53
1505441104.17,13620,14.56,73134.5,-3.21,-21.53,-30.33,0,*50
1505441105.41,13621,14.5,73114.8,-3.21,-21.43,-30.45,0,*51
1505441106.66,13622,14.56,73112.0,-3.21,-21.43,-30.51,0,*57
1505441107.93,13623,14.5,73116.5,-3.21,-21.43,-30.61,0,*55
1505441109.2,13624,14.56,73128.3,-3.21,-21.53,-30.67,0,*55
1505441110.44,13625,14.56,73132.0,-3.21,-21.39,-30.67,0,*58
1505441111.73,13626,14.56,73148.5,-3.21,-21.23,-30.51,0,*55
1505441112.96,13627,14.5,73146.5,-3.21,-21.09,-30.45,0,*59
1505441114.2,13628,14.5,73140.0,-3.21,-21.17,-30.45,0,*59
1505441115.44,13629,14.5,73148.5,-3.23,-21.39,-30.73,0,*53
1505441116.68,13630,14.5,73144.0,-3.21,-21.43,-30.83,0,*5B
1505441117.97,13631,14.5,73144.3,-3.21,-21.27,-30.73,0,*57
1505441119.26,13632,14.5,73136.0,-3.21,-21.27,-30.89,0,*51
1505441120.5,13633,14.5,73140.5,-3.21,-21.43,-31.01,0,*53
1505441121.73,13634,14.56,73132.8,-3.21,-21.39,-31.01,0,*59
1505441122.96,13635,14.5,73132.5,-3.21,-21.43,-31.05,0,*51
1505441124.25,13636,14.5,73134.3,-3.21,-21.57,-31.23,0,*53
1505441125.54,13637,14.56,73130.3,-3.21,-21.57,-31.39,0,*59
1505441126.8,13638,14.56,73120.0,-3.21,-21.73,-31.51,0,*5E
1505441128.08,13639,14.5,73124.3,-3.21,-21.97,-31.73,0,*55
1505441129.33,13640,14.5,73120.3,-3.21,-22.03,-31.85,0,*5C
1505441130.59,13641,14.5,73114.0,-3.23,-21.97,-31.91,0,*54
1505441131.82,13642,14.5,73132.5,-3.23,-22.03,-31.91,0,*59
1505441133.05,13643,14.5,73140.3,-3.23,-22.03,-31.95,0,*5C
1505441134.31,13644,14.56,73146.5,-3.25,-22.17,-32.01,0,*56
1505441135.57,13645,14.5,73148.3,-3.23,-22.17,-32.07,0,*57
1505441136.84,13646,14.5,73146.8,-3.23,-22.17,-31.95,0,*5C
1505441138.1,13647,14.5,73140.5,-3.23,-22.21,-32.07,0,*50
1505441139.3,13648,14.5,73142.3,-3.23,-22.37,-32.13,0,*5D
1505441140.53,13649,14.56,73142.8,-3.23,-22.47,-32.23,0,*58
1505441141.77,13650,14.5,73142.3,-3.25,-22.57,-32.35,0,*50
1505441143.01,13651,14.5,73126.3,-3.25,-22.57,-32.35,0,*51
1505441144.27,13652,14.56,73122.8,-3.25,-22.67,-32.45,0,*56
1505441145.5,13653,14.56,73120.5,-3.25,-22.67,-32.35,0,*50
1505441146.75,13654,14.56,73130.0,-3.25,-22.67,-32.45,0,*50
1505441148.03,13655,14.5,73124.0,-3.25,-22.73,-32.45,0,*54
1505441149.27,13656,14.5,73128.5,-3.25,-22.83,-32.39,0,*53
1505441150.51,13657,14.56,73140.0,-3.25,-22.83,-32.51,0,*5C
1505441151.75,13658,14.56,73140.3,-3.25,-22.97,-32.51,0,*56
1505441153.01,13659,14.56,73134.5,-3.25,-23.03,-32.51,0,*5B
1505441154.22,13660,14.56,73136.8,-3.27,-23.09,-32.57,0,*5F
1505441155.46,13661,14.5,73140.5,-3.27,-23.19,-32.69,0,*52
1505441156.72,13662,14.5,73142.0,-3.29,-23.19,-32.69,0,*5F
1505441157.95,13663,14.56,73136.5,-3.27,-23.23,-32.69,0,*59
1505441159.24,13664,14.5,73136.5,-3.29,-23.33,-32.85,0,*53
1505441160.5,13665,14.5,73140.0,-3.27,-23.33,-32.75,0,*53
1505441161.74,13666,14.56,73140.0,-3.27,-23.33,-32.69,0,*5D
1505441162.97,13667,14.56,73136.5,-3.29,-23.39,-32.69,0,*58
1505441164.2,13668,14.5,73148.0,-3.29,-23.39,-32.69,0,*57
1505441165.46,13669,14.56,73152.8,-3.29,-23.43,-32.85,0,*59
1505441166.75,13670,14.56,73146.3,-3.29,-23.53,-32.85,0,*50
1505441168.01,13671,14.56,73136.5,-3.29,-23.59,-32.85,0,*5B
1505441169.3,13672,14.5,73132.8,-3.33,-23.65,-32.97,0,*5F
1505441170.58,13673,14.56,73138.5,-3.33,-23.65,-32.97,0,*5E
1505441171.85,13674,14.56,73146.0,-3.35,-23.65,-32.79,0,*5F
1505441173.09,13675,14.56,73138.8,-3.35,-23.59,-32.79,0,*51
1505441174.38,13676,14.56,73132.3,-3.33,-23.65,-32.79,0,*5B
1505441175.64,13677,14.5,73132.8,-3.35,-23.65,-32.75,0,*50
1505441176.91,13678,14.5,73138.3,-3.33,-23.59,-32.63,0,*51
1505441178.19,13679,14.56,73142.3,-3.33,-23.49,-32.63,0,*51
1505441179.45,13680,14.56,73142.8,-3.33,-23.49,-32.57,0,*50
1505441180.68,13681,14.56,73146.5,-3.35,-23.49,-32.57,0,*57
1505441181.97,13682,14.56,73140.8,-3.33,-23.65,-32.63,0,*5B
1505441183.23,13683,14.56,73136.5,-3.35,-23.65,-32.75,0,*5B
1505441184.47,13684,14.56,73136.8,-3.35,-23.65,-32.57,0,*5C
1505441185.7,13685,14.56,73142.8,-3.35,-23.49,-32.57,0,*53
1505441186.96,13686,14.56,73146.0,-3.33,-23.49,-32.57,0,*56
1505441188.16,13687,14.56,73148.8,-3.35,-23.59,-32.57,0,*50
1505441189.42,13688,14.5,73146.3,-3.33,-23.49,-32.57,0,*58
1505441190.68,13689,14.56,73150.5,-3.35,-23.65,-32.63,0,*56
1505441191.94,13690,14.56,73144.8,-3.35,-23.65,-32.63,0,*5E
1505441193.23,13691,14.56,73142.0,-3.37,-23.65,-32.79,0,*56
1505441194.49,13692,14.56,73132.0,-3.35,-23.65,-32.63,0,*5C
1505441195.75,13693,14.56,73132.0,-3.35,-23.65,-32.63,0,*5D
1505441197.01,13694,14.56,73134.3,-3.37,-23.69,-32.69,0,*5E
1505441198.27,13695,14.56,73134.8,-3.37,-23.69,-32.69,0,*5F
1505441199.54,13696,14.56,73132.8,-3.37,-23.65,-32.69,0,*50
1505441200.83,13697,14.56,73142.3,-3.37,-23.65,-32.79,0,*50
1505441202.07,13698,14.56,73150.8,-3.39,-23.69,-32.63,0,*56
1505441203.34,13699,14.56,73148.0,-3.37,-23.65,-32.69,0,*5F
1505441204.6,13700,14.56,73152.8,-3.39,-23.65,-32.79,0,*51
1505441205.83,13701,14.56,73148.3,-3.39,-23.65,-32.69,0,*51
1505441207.12,13702,14.56,73150.3,-3.37,-23.53,-32.63,0,*53
1505441208.36,13703,14.56,73148.8,-3.39,-23.53,-32.51,0,*5D
1505441209.65,13704,14.56,73156.3,-3.37,-23.53,-32.63,0,*55
1505441210.91,13705,14.56,73158.8,-3.39,-23.53,-32.45,0,*5E
1505441212.17,13706,14.56,73152.8,-3.39,-23.53,-32.45,0,*5D
1505441213.41,13707,14.56,73152.8,-3.43,-23.59,-32.51,0,*5E
1505441214.65,13708,14.56,73150.8,-3.43,-23.69,-32.57,0,*54
1505441215.9,13709,14.56,73148.3,-3.43,-23.69,-32.57,0,*55
1505441217.14,13710,14.56,73148.8,-3.43,-23.69,-32.57,0,*5D
1505441218.37,13711,14.56,73146.3,-3.43,-23.75,-32.57,0,*51
1505441219.6,13712,14.56,73140.3,-3.43,-23.75,-32.57,0,*52
1505441220.84,13713,14.56,73142.8,-3.45,-23.75,-32.63,0,*52
1505441222.08,13714,14.56,73142.8,-3.45,-23.75,-32.75,0,*52
1505441223.29,13715,14.56,73140.5,-3.45,-23.75,-32.69,0,*5E
1505441224.53,13716,14.56,73146.8,-3.43,-23.75,-32.69,0,*5B
1505441225.77,13717,14.56,73144.8,-3.43,-23.89,-32.69,0,*59
1505441227.03,13718,14.56,73148.3,-3.45,-23.95,-32.79,0,*5C
1505441228.26,13719,14.56,73146.3,-3.45,-23.95,-32.91,0,*5B
1505441229.47,13720,14.56,73140.5,-3.45,-24.05,-32.91,0,*5F
1505441230.7,13721,14.56,73144.8,-3.45,-24.11,-32.91,0,*5B
1505441231.96,13722,14.56,73144.0,-3.45,-24.11,-32.97,0,*5E
1505441233.21,13723,14.56,73148.5,-3.45,-24.21,-32.97,0,*5C
1505441234.48,13724,14.56,73148.8,-3.45,-24.25,-33.09,0,*59
1505441235.76,13725,14.56,73150.3,-3.47,-24.25,-33.09,0,*5A
1505441237.05,13726,14.56,73148.0,-3.47,-24.25,-33.09,0,*59
1505441238.31,13727,14.56,73146.0,-3.47,-24.35,-33.09,0,*59
1505441239.57,13728,14.56,73140.0,-3.47,-24.47,-33.31,0,*58
1505441240.81,13729,14.56,73134.3,-3.49,-24.57,-33.31,0,*56
1505441242.02,13730,14.56,73130.5,-3.49,-24.47,-33.03,0,*5E
1505441243.28,13731,14.56,73144.0,-3.47,-24.41,-33.15,0,*50
1505441244.56,13732,14.56,73140.8,-3.47,-24.41,-33.09,0,*5E
1505441245.82,13733,14.56,73144.8,-3.49,-24.67,-33.31,0,*5E
1505441247.08,13734,14.56,73142.3,-3.47,-24.57,-33.27,0,*53
1505441248.32,13735,14.56,73152.8,-3.49,-24.77,-33.31,0,*59
1505441249.57,13736,14.56,73152.5,-3.47,-24.77,-33.31,0,*54
1505441250.83,13737,14.56,73152.3,-3.47,-24.87,-33.37,0,*5C
1505441252.08,13738,14.56,73150.8,-3.47,-25.03,-33.55,0,*5A
1505441253.3,13739,14.56,73146.8,-3.49,-25.09,-33.61,0,*58
1505441254.53,13740,14.56,73154.8,-3.49,-25.23,-33.61,0,*5E
1505441255.75,13741,14.5,73158.8,-3.49,-25.23,-33.61,0,*5F
1505441256.98,13742,14.56,73158.8,-3.47,-25.09,-33.37,0,*59
1505441258.22,13743,14.56,73158.5,-3.49,-25.09,-33.43,0,*55
1505441259.44,13744,14.56,73150.0,-3.49,-25.39,-33.61,0,*51
1505441260.69,13745,14.56,73152.3,-3.49,-25.45,-33.61,0,*5B
1505441261.92,13746,14.56,73144.8,-3.47,-25.23,-33.37,0,*55
1505441263.14,13747,14.56,73138.5,-3.49,-25.45,-33.55,0,*5E
1505441264.4,13748,14.56,73142.3,-3.47,-25.49,-33.49,0,*5E
1505441265.64,13749,14.56,73128.5,-3.49,-25.55,-33.37,0,*55
1505441266.91,13750,14.56,73122.8,-3.49,-25.55,-33.43,0,*5E
1505441268.19,13751,14.56,73140.8,-3.47,-25.55,-33.31,0,*54
1505441269.43,13752,14.56,73134.5,-3.49,-25.75,-33.37,0,*5D
1505441270.71,13753,14.56,73146.8,-3.47,-25.55,-33.27,0,*51
1505441272.0,13754,14.56,73146.0,-3.47,-25.55,-33.09,0,*5A
1505441273.28,13755,14.56,73148.0,-3.47,-25.75,-33.27,0,*55
1505441274.51,13756,14.56,73156.3,-3.49,-25.81,-33.21,0,*55
1505441275.76,13757,14.56,73150.5,-3.47,-25.75,-33.15,0,*56
1505441277.02,13758,14.56,73156.3,-3.47,-25.91,-33.27,0,*52
1505441278.24,13759,14.56,73148.0,-3.47,-25.91,-33.15,0,*52
1505441279.48,13760,14.56,73136.5,-3.45,-26.07,-33.27,0,*57
1505441280.68,13761,14.56,73122.0,-3.45,-26.39,-33.37,0,*5A
1505441281.92,13762,14.56,73124.0,-3.45,-26.39,-33.31,0,*5F
1505441283.12,13763,14.56,73134.3,-3.45,-26.65,-33.55,0,*55
1505441284.35,13764,14.56,73148.8,-3.45,-26.71,-33.55,0,*57
1505441285.58,13765,14.56,73144.3,-3.43,-26.87,-33.67,0,*58
1505441286.82,13766,14.56,73146.3,-3.45,-27.19,-33.89,0,*5B
1505441288.05,13767,14.56,73142.0,-3.45,-27.23,-33.83,0,*59
1505441289.26,13768,14.56,73132.0,-3.45,-27.07,-33.67,0,*5A
1505441290.52,13769,14.56,73124.0,-3.43,-27.03,-33.43,0,*5F
1505441291.75,13770,14.56,73118.0,-3.45,-27.03,-33.49,0,*5B
1505441293.03,13771,14.56,73124.5,-3.43,-27.19,-33.43,0,*5D
1505441294.29,13772,14.56,73132.5,-3.43,-27.29,-33.49,0,*57
1505441295.55,13773,14.56,73132.0,-3.43,-27.61,-33.67,0,*56
1505441296.81,13774,14.56,73142.8,-3.43,-27.67,-33.77,0,*56
1505441298.06,13775,14.56,73140.3,-3.43,-27.83,-33.83,0,*56
1505441299.32,13776,14.56,73142.3,-3.45,-28.05,-33.89,0,*58
1505441300.59,13777,14.56,73136.5,-3.43,-27.99,-33.77,0,*54
1505441301.82,13778,14.56,73138.0,-3.45,-28.09,-33.83,0,*50
1505441303.05,13779,14.56,73140.0,-3.43,-28.15,-33.83,0,*5A
1505441304.3,13780,14.56,73130.3,-3.45,-28.43,-34.01,0,*54
1505441305.56,13781,14.56,73124.3,-3.43,-28.37,-34.01,0,*50